Location: Bon Acre
(42.6442°N, 73.5758°W)
Time: 02:23:17
(UTC+00:00)

SL-08 R/B - Pass Details

Date: 13 March 2026
Orbit: 946 x 992 km, 83.0° (Epoch: 13 April)

Event Time Altitude Azimuth Distance (km) Brightness Sun altitude
Exits shadow 03:25:43 20° 321° (NW) 2,068 6.6 -44.7°
Drops below altitude 10° 03:28:15 10° 343° (NNW) 2,676 7.3 -44.9°
Sets 03:31:17 0° 357° (N) 3,624 8.1 -45.3°
